YO8RBY-13 Weather Reports


Display with metric or nautical units.
time (UTC)temp
F
wind
direction
speed
MPH
gust
MPH
rain 1hr
in
rain 24hr
in
rain mn
in
humidity
%
barometer
mb
20260903220250 61 0.0 0.0 0.00 0.00 0.00 10 974.0
20260903215250 61 0.0 0.0 0.00 0.00 0.00 10 974.0
20260903214250 61 0.0 0.0 0.00 0.00 0.00 10 974.0
20260903213250 62 0.0 0.0 0.00 0.00 0.00 10 974.2
20260903212250 61 0.0 0.0 0.00 0.00 0.00 10 973.8
20260903211250 61 0.0 0.0 0.00 0.00 0.00 10 974.0
20260903210250 61 0.0 0.0 0.00 0.00 0.00 10 974.0
20260903205250 61 0.0 0.0 0.00 0.00 0.00 10 973.6
20260903204250 60 0.0 0.0 0.00 0.00 0.00 10 973.7
20260903203250 60 0.0 0.0 0.00 0.00 0.00 10 973.6
20260903202308 60 0.0 0.0 0.00 0.00 0.00 10 973.7
20260903201250 61 0.0 0.0 0.00 0.00 0.00 10 973.9
20260903200251 60 0.0 0.0 0.00 0.00 0.00 10 973.7
20260903195250 60 0.0 0.0 0.00 0.00 0.00 10 973.8
20260903194250 60 0.0 0.0 0.00 0.00 0.00 10 973.8
20260903193250 60 0.0 0.0 0.00 0.00 0.00 10 973.9
20260903192250 60 0.0 0.0 0.00 0.00 0.00 10 974.1
20260903191250 60 0.0 0.0 0.00 0.00 0.00 10 974.1
20260903190250 61 0.0 0.0 0.00 0.00 0.00 10 974.1
20260903185250 61 0.0 0.0 0.00 0.00 0.00 10 974.1
20260903184250 62 0.0 0.0 0.00 0.00 0.00 10 974.1
20260903183250 62 0.0 0.0 0.00 0.00 0.00 10 974.0
20260903182250 62 0.0 0.0 0.00 0.00 0.00 10 974.0
20260903181250 63 0.0 0.0 0.00 0.00 0.00 10 974.9
20260903180250 63 0.0 0.0 0.00 0.00 0.00 10 973.9
20260903175250 63 0.0 0.0 0.00 0.00 0.00 10 973.8
20260903174250 63 0.0 0.0 0.00 0.00 0.00 10 973.6
20260903173250 63 0.0 0.0 0.00 0.00 0.00 10 973.6
20260903172250 64 0.0 0.0 0.00 0.00 0.00 10 974.4
20260903171250 65 0.0 0.0 0.00 0.00 0.00 10 975.7
20260903170250 66 0.0 0.0 0.00 0.00 0.00 10 975.7
20260903165250 67 0.0 0.0 0.00 0.00 0.00 10 976.3
20260903164250 69 0.0 0.0 0.00 0.00 0.00 10 976.6
20260903163250 70 0.0 0.0 0.00 0.00 0.00 96 976.6
20260903162250 71 0.0 0.0 0.00 0.00 0.00 99 976.5
20260903161250 71 0.0 0.0 0.00 0.00 0.00 10 976.4
20260903160250 71 0.0 0.0 0.00 0.00 0.00 10 976.2
20260903155250 72 0.0 0.0 0.00 0.00 0.00 97 976.0
20260903154250 73 0.0 0.0 0.00 0.00 0.00 92 975.9
20260903153250 75 0.0 0.0 0.00 0.00 0.00 72 975.8
20260903152250 75 0.0 0.0 0.00 0.00 0.00 65 975.7
20260903151250 75 0.0 0.0 0.00 0.00 0.00 63 975.8
20260903150250 76 0.0 0.0 0.00 0.00 0.00 63 975.8
20260903145253 77 0.0 0.0 0.00 0.00 0.00 58 975.8
20260903144250 75 0.0 0.0 0.00 0.00 0.00 62 975.9
20260903143250 75 0.0 0.0 0.00 0.00 0.00 63 975.9
20260903142250 76 0.0 0.0 0.00 0.00 0.00 59 975.9
20260903141250 77 0.0 0.0 0.00 0.00 0.00 53 976.0
20260903140251 77 0.0 0.0 0.00 0.00 0.00 58 976.0
20260903135250 77 0.0 0.0 0.00 0.00 0.00 53 975.9
20260903134250 76 0.0 0.0 0.00 0.00 0.00 55 976.0
20260903133250 77 0.0 0.0 0.00 0.00 0.00 56 976.0
20260903132250 78 0.0 0.0 0.00 0.00 0.00 51 976.0
20260903131250 79 0.0 0.0 0.00 0.00 0.00 53 976.2
20260903130250 76 0.0 0.0 0.00 0.00 0.00 60 976.3
20260903125250 79 0.0 0.0 0.00 0.00 0.00 55 976.3
20260903123250 77 0.0 0.0 0.00 0.00 0.00 59 976.4
20260903122250 78 0.0 0.0 0.00 0.00 0.00 50 976.6
20260903121250 79 0.0 0.0 0.00 0.00 0.00 50 976.8
20260903120252 79 0.0 0.0 0.00 0.00 0.00 55 976.8
20260903115259 79 0.0 0.0 0.00 0.00 0.00 54 976.8
20260903114250 78 0.0 0.0 0.00 0.00 0.00 58 977.1
20260903113250 77 0.0 0.0 0.00 0.00 0.00 58 977.1
20260903112250 77 0.0 0.0 0.00 0.00 0.00 62 977.3
20260903111250 78 0.0 0.0 0.00 0.00 0.00 58 977.3
20260903110311 78 0.0 0.0 0.00 0.00 0.00 60 977.4
20260903105253 78 0.0 0.0 0.00 0.00 0.00 63 977.5
20260903104250 78 0.0 0.0 0.00 0.00 0.00 68 977.5
20260903103250 78 0.0 0.0 0.00 0.00 0.00 66 977.6
20260903102250 76 0.0 0.0 0.00 0.00 0.00 72 977.8
20260903101250 74 0.0 0.0 0.00 0.00 0.00 84 977.9
20260903100250 75 0.0 0.0 0.00 0.00 0.00 85 978.1
20260903095247 77 0.0 0.0 0.00 0.00 0.00 73 978.1
20260903094251 75 0.0 0.0 0.00 0.00 0.00 75 978.2
20260903093249 77 0.0 0.0 0.00 0.00 0.00 70 978.3
20260903092250 76 0.0 0.0 0.00 0.00 0.00 89 978.3
20260903091250 76 0.0 0.0 0.00 0.00 0.00 88 978.4
20260903090250 76 0.0 0.0 0.00 0.00 0.00 89 978.4
20260903085250 75 0.0 0.0 0.00 0.00 0.00 97 978.6
20260903084316 74 0.0 0.0 0.00 0.00 0.00 10 978.6
20260903072226 71 0.0 0.0 0.00 0.00 0.00 10 978.8
20260903071226 70 0.0 0.0 0.00 0.00 0.00 10 978.8
20260903070229 69 0.0 0.0 0.00 0.00 0.00 10 978.8
20260903065226 67 0.0 0.0 0.00 0.00 0.00 10 978.9
20260903064226 67 0.0 0.0 0.00 0.00 0.00 10 978.8
20260903063226 68 0.0 0.0 0.00 0.00 0.00 10 978.8
20260903062226 69 0.0 0.0 0.00 0.00 0.00 10 978.7
20260903061226 68 0.0 0.0 0.00 0.00 0.00 10 978.3
20260903060226 65 0.0 0.0 0.00 0.00 0.00 10 977.4
20260903055226 65 0.0 0.0 0.00 0.00 0.00 10 977.4
20260903054226 65 0.0 0.0 0.00 0.00 0.00 10 977.3
20260903053226 64 0.0 0.0 0.00 0.00 0.00 10 976.7
20260903052226 62 0.0 0.0 0.00 0.00 0.00 10 976.0
20260903051226 62 0.0 0.0 0.00 0.00 0.00 10 975.9
20260903050226 62 0.0 0.0 0.00 0.00 0.00 10 976.0
20260903045226 60 0.0 0.0 0.00 0.00 0.00 10 975.7
20260903044227 59 0.0 0.0 0.00 0.00 0.00 10 975.7
20260903043226 59 0.0 0.0 0.00 0.00 0.00 10 975.6
20260903042226 59 0.0 0.0 0.00 0.00 0.00 10 975.7
20260903041226 59 0.0 0.0 0.00 0.00 0.00 10 975.7
20260903040226 58 0.0 0.0 0.00 0.00 0.00 10 975.7
20260903035226 58 0.0 0.0 0.00 0.00 0.00 10 975.7
20260903034226 58 0.0 0.0 0.00 0.00 0.00 10 975.7
20260903033226 57 0.0 0.0 0.00 0.00 0.00 10 975.6
20260903032226 57 0.0 0.0 0.00 0.00 0.00 10 975.6
20260903031226 57 0.0 0.0 0.00 0.00 0.00 10 975.7
20260903030229 58 0.0 0.0 0.00 0.00 0.00 10 975.6
20260903025226 58 0.0 0.0 0.00 0.00 0.00 10 975.6
20260903024227 58 0.0 0.0 0.00 0.00 0.00 10 975.7
20260903023226 57 0.0 0.0 0.00 0.00 0.00 10 975.8
20260903022226 58 0.0 0.0 0.00 0.00 0.00 10 975.7
20260903021226 57 0.0 0.0 0.00 0.00 0.00 10 975.8
20260903020226 57 0.0 0.0 0.00 0.00 0.00 10 975.5
20260903015226 58 0.0 0.0 0.00 0.00 0.00 10 975.4
20260903014226 58 0.0 0.0 0.00 0.00 0.00 10 975.4
20260903013226 58 0.0 0.0 0.00 0.00 0.00 10 975.4
20260903012226 59 0.0 0.0 0.00 0.00 0.00 10 975.4
20260903011226 59 0.0 0.0 0.00 0.00 0.00 10 975.4
20260903010245 59 0.0 0.0 0.00 0.00 0.00 10 975.5
20260903005226 60 0.0 0.0 0.00 0.00 0.00 10 975.5
20260903004227 60 0.0 0.0 0.00 0.00 0.00 10 975.4
20260903003226 60 0.0 0.0 0.00 0.00 0.00 10 975.4
20260903002226 60 0.0 0.0 0.00 0.00 0.00 10 975.4
20260903001226 61 0.0 0.0 0.00 0.00 0.00 10 975.4
20260903000226 61 0.0 0.0 0.00 0.00 0.00 10 975.3
20260902235226 61 0.0 0.0 0.00 0.00 0.00 10 975.3
20260902234226 61 0.0 0.0 0.00 0.00 0.00 10 975.2
20260902233226 61 0.0 0.0 0.00 0.00 0.00 10 975.4
20260902232226 61 0.0 0.0 0.00 0.00 0.00 10 975.5
20260902231226 60 0.0 0.0 0.00 0.00 0.00 10 975.4
20260902230226 61 0.0 0.0 0.00 0.00 0.00 10 975.4
20260902225226 61 0.0 0.0 0.00 0.00 0.00 10 975.4
20260902224226 61 0.0 0.0 0.00 0.00 0.00 10 975.6
20260902223226 62 0.0 0.0 0.00 0.00 0.00 10 975.6
20260902222251 62 0.0 0.0 0.00 0.00 0.00 10 975.6